THOR ABLESTAR R/B, 1508

Orbit data source: Space-Track

THOR ABLESTAR R/B, 1508 is space debris in LEO originally from a launch on Fri, 13 Aug 1965 UTC launched from the Air Force Western Test Range (AFWTR). Debris objects in space refer to the collection of defunct objects orbiting the Earth. Examples of debris include non-operational satellites, rocket bodies, and fragments generated from explosions, collisions, or faulty payload assembly.

Loading next visibility...
Identifier
1508, 1965-065B
Orbit
LEO
Country
Flag of USUS
Related business
Manufacturer
Aerojet
Mission
Spacecraft
Bus & Motor
ABLESTAR, Unknown motor
Mass
~600 kg wet, 600 kg dry
Launch date (UTC)
1965-08-13 (61 years ago)
Launch vehicle
Unknown
Launch site
Air Force Western Test Range (AFWTR)
Object type
Payload
Rocket body
Debris
Shape & HBR
Unknown
Radar Cross Section
Large (>1 m²)

Expand to show TLE details & history
Last TLE update: 6 hours ago

TLE from 6 hours ago
0 THOR ABLESTAR R/B
1  1508U 65065B   26166.12295449  .00000014  00000-0  10920-4 0  9994
2  1508  90.1319 307.6709 0041229 340.4871 194.2272 13.36095504965133
Epoch: 2026-06-15T02:57Z
TLE epoch observation values (Epoch: 2026-06-15T02:57:03.267Z)
Latitude
5.31872°
Longitude
-179.99436°
Altitude
1,156.255 km
Speed
7.261 km/s
True Right ascension
08h 30m 43s
True Declination
5° 17' 19"
Sunlit
Object was in daylight at epoch
Visualization orbit readout
Latitude
Unknown
Longitude
Unknown
Altitude
Unknown
Speed
Unknown
Apparent Right ascension
Unknown
Apparent Declination
Unknown
Sunlit
N/A
Visualization observer readout
Local Sidereal Time
19:27:49
Azimuth
Unknown
Elevation
Unknown
Doppler factor
Unknown
Orbital elements
Apogee altitude
1,151.847 km
Perigee altitude
1,090.011 km
Semi-major axis
7,499.066 km
Eccentricity
0.00412
Inclination
90.1319°
RAAN
307.6709°
Arg. of periapsis
340.4871°
True anomaly
194.11166°
Mean anomaly
194.2272°
Eccentric anomaly
194.16937°
Mean motion
3.3422 °/min
Orbital period
107.71 mins
BSTAR
0.00001092
Loading maneuver chart data...
Computing Atmospheric mass density...

Documentation

Showing up to 5 results
|